User: anonymous   Login
Location: Bangkok
(13.7500°N, 100.5170°E)
Time: 10:33:24
(UTC+07:00)
Language:

Cosmos 1898 Rocket - Orbit

View from above orbital plane
View from above orbital plane
View from above satellite
View from above satellite

Ground track
Ground track

The orbit data is extracted from the following two-line orbital elements,

1 18586U 87098B   15085.25772610  .00000263  00000-0  98284-4 0  9995
2 18586 074.0093 353.9198 0022114 243.8541 245.6228 14.36585167430471
Epoch (UTC): 26 March 2015 06:11:07
Eccentricity: 0.0022114
inclination: 74.0093°
perigee height: 754 km
apogee height: 785 km
right ascension of ascending node: 353.9198°
argument of perigee: 243.8541°
revolutions per day: 14.36585167
mean anomaly at epoch: 245.6228°
orbit number at epoch: 43047

The dashed part of the orbit path shows where the satellite is in the earth's shadow,  

DLR